Location: Oshawa
(43.9000°N, 78.8670°W)
Time: 08:07:46
(UTC-04:00)

Explorer 7 - Visible Passes

Search period start: 26 July 2016 00:00
Search period end: 05 August 2016 00:00
Orbit: 486 x 687 km, 50.3° (Epoch: 26 July)

Date Brightness Start Highest point End Pass type
(mag) Time Alt. Az. Time Alt. Az. Time Alt. Az.
26 Jul 9.4 01:56:48 15° E 01:56:48 15° E 01:58:10 10° E visible
26 Jul 7.2 03:33:11 44° SW 03:34:46 84° SSE 03:39:42 10° ENE visible
26 Jul 8.3 05:11:09 10° W 05:15:52 43° N 05:20:27 10° ENE visible
27 Jul 8.9 02:02:36 24° E 02:02:36 24° E 02:05:01 10° ENE visible
27 Jul 7.4 03:38:59 33° WSW 03:41:10 72° NNW 03:46:04 10° ENE visible
27 Jul 8.5 05:17:47 10° WNW 05:22:26 39° N 05:26:56 10° ENE visible
28 Jul 8.3 02:08:21 36° E 02:08:21 36° E 02:11:36 10° ENE visible
28 Jul 7.8 03:44:44 24° W 03:47:37 56° NNW 03:52:26 10° ENE visible
28 Jul 8.5 05:24:23 10° WNW 05:29:01 38° N 05:33:29 10° ENE visible
29 Jul 7.6 02:14:05 55° E 02:14:05 55° E 02:18:04 10° ENE visible
29 Jul 8.1 03:50:28 16° W 03:54:07 46° NNW 03:58:50 10° ENE visible
30 Jul 7.3 02:19:46 78° NNE 02:19:46 78° NNE 02:24:27 10° ENE visible
30 Jul 8.4 03:56:08 11° WNW 04:00:40 41° N 04:05:18 10° ENE visible
31 Jul 9.5 00:49:01 14° ENE 00:49:01 14° ENE 00:49:52 10° ENE visible
31 Jul 7.5 02:25:24 60° NW 02:25:53 64° NNW 02:30:49 10° ENE visible
31 Jul 8.5 04:02:35 10° WNW 04:07:14 39° N 04:11:48 10° ENE visible
01 Aug 9.1 00:54:37 21° ENE 00:54:37 21° ENE 00:56:22 10° ENE visible
01 Aug 8.0 02:31:00 39° WNW 02:32:22 51° NNW 02:37:12 10° ENE visible
01 Aug 8.6 04:09:09 10° WNW 04:13:49 39° N 04:18:23 10° ENE visible
02 Aug 8.6 01:00:10 31° ENE 01:00:10 31° ENE 01:02:46 10° ENE visible
02 Aug 8.3 02:36:32 26° WNW 02:38:53 43° N 02:43:37 10° ENE visible
02 Aug 8.5 04:15:39 10° WNW 04:20:22 42° N 04:25:00 10° E visible
03 Aug 8.1 01:05:37 45° NE 01:05:37 45° NE 01:09:09 10° ENE visible
03 Aug 8.5 02:41:58 17° WNW 02:45:27 40° N 02:50:06 10° ENE visible
03 Aug 8.2 04:22:05 10° WNW 04:26:54 49° NNE 04:31:36 10° E visible
03 Aug 9.7 23:34:34 10° ENE 23:34:34 10° ENE 23:34:36 10° ENE visible
04 Aug 7.8 01:10:55 55° N 01:10:55 55° N 01:15:31 10° ENE visible
04 Aug 8.6 02:47:22 10° WNW 02:52:01 39° N 02:56:38 10° ENE visible
04 Aug 7.8 04:28:28 10° WNW 04:33:23 60° NNE 04:38:10 10° ESE visible
04 Aug 9.0 23:39:31 20° ENE 23:39:31 20° ENE 23:41:04 10° ENE visible
